Location: Bratislava
(0.0000°N, 17.1167°E)
Time: 21:37:41
(UTC+02:00)

Daily predictions for brighter satellites

Satellite Brightness Start Highest point End
(mag) Time Altitude Azimuth Time Altitude Azimuth Time Altitude Azimuth
Cosmos 1302 Rocket 4.4 19:09:17 10° N 19:14:15 42° ENE 19:19:13 10° SSE
Cosmos 1340 Rocket 4.4 19:13:43 10° SE 19:16:11 16° E 19:18:39 10° ENE
Aureole 3 3.5 19:13:30 10° S 19:17:07 81° W 19:21:37 10° N
STARLINK-1100 3.6 19:13:48 10° NNW 19:17:54 65° ENE 19:22:00 10° SE
STARLINK-1083 3.6 19:18:43 10° NNW 19:22:50 75° NE 19:26:58 10° SE
STARLINK-80 4.4 19:20:47 10° S 19:24:02 27° SE 19:27:16 10° ENE
STARLINK-43 4.5 19:23:56 10° SW 19:27:29 46° NW 19:31:00 10° NNE
STARLINK-1125 3.6 19:23:40 10° NNW 19:27:47 88° NE 19:31:56 10° SE
Cosmos 2058 Rocket 4.4 19:24:54 10° SE 19:28:08 20° E 19:31:23 10° NE
Cosmos 1726 Rocket 4.2 19:24:21 10° SSE 19:28:18 34° E 19:32:16 10° NNE
TSX-5 4.0 19:28:27 10° N 19:31:22 32° ENE 19:34:12 10° SE
STARLINK-1109 3.7 19:28:37 10° NW 19:32:44 80° WSW 19:36:53 10° SSE
Cosmos 1626 Rocket 3.7 19:29:03 10° N 19:33:12 50° E 19:37:22 10° SSE
NOAA 11 4.3 19:28:25 10° SSE 19:33:42 53° ENE 19:38:57 10° N
GOES 2 Rocket 4.3 19:31:43 10° NNW 19:35:14 25° NNE 19:37:55 14° ENE
Cosmos 2228 3.0 19:31:24 10° S 19:35:35 55° E 19:39:45 10° NNE
STARLINK-1091 3.9 19:33:37 10° NW 19:37:42 69° WSW 19:41:50 10° SSE
Cosmos 1140 Rocket 3.6 19:32:29 10° SSW 19:37:44 85° WNW 19:42:55 10° N
ARIANE 5 R/B 4.5 19:33:32 10° WSW 19:38:21 64° S 19:54:13 17° E
FengYun 1-2 T 4.5 19:33:34 10° S 19:39:04 74° WSW 19:44:32 10° NNW
STARLINK-1072 4.2 19:38:41 10° NW 19:42:43 57° SW 19:46:47 10° SSE
USA 234 3.3 19:36:54 10° NE 19:43:21 64° SE 19:49:50 10° SSW
SWIFT 3.0 19:40:22 10° SW 19:44:16 37° SSE 19:46:30 21° ESE
NATO 3D Rocket 4.1 19:40:04 10° W 19:44:57 56° SSW 19:50:06 15° SE
Cosmos 1602 Rocket 3.6 19:41:51 10° N 19:46:05 55° E 19:50:17 10° SSE
Cosmos 1939 Rocket 2.8 19:42:53 10° SSE 19:46:50 61° ENE 19:50:42 10° N
CZ-4 R/B 1.3 19:46:53 10° S 19:50:46 84° WSW 19:54:36 10° NNW
Nadezhda 1 Rocket 4.0 19:44:51 10° S 19:51:09 62° E 19:57:26 10° NNE
CZ-2D R/B 3.1 19:51:03 10° SSE 19:54:52 74° E 19:58:39 10° N
Delta 2 Rocket 4.0 19:49:06 10° SW 19:55:10 52° SSE 19:58:36 24° E
Cosmos 1626 4.1 19:52:22 10° NNW 19:55:41 32° W 19:59:01 10° SSW
Cosmos 1606 Rocket 4.2 19:54:54 10° SSW 19:59:12 58° W 20:03:32 10° N
Okean-O 4.3 19:55:27 10° SSW 19:59:29 35° WSW 20:03:32 10° NW
Sylda 4400 3.3 19:55:05 10° WSW 20:01:11 67° S 20:02:13 41° ESE
STARLINK-55 3.9 20:00:23 10° SSW 20:02:34 31° SSE 20:02:34 31° SSE
CZ-2C R/B 4.0 19:59:15 10° NNE 20:03:28 40° ESE 20:07:39 10° S
Cosmos 2184 Rocket 4.4 19:58:31 10° NNE 20:04:07 36° E 20:07:55 19° SE
Cosmos 292 Rocket 3.7 20:01:57 10° N 20:06:42 61° ENE 20:09:53 21° SSE
STARLINK-28 3.5 20:04:32 10° SSW 20:07:00 43° SSE 20:07:00 43° SSE
STARLINK-33 4.4 20:11:18 10° SSW 20:12:59 27° S 20:12:59 27° S
Cosmos 1758 Rocket 3.6 20:12:32 10° N 20:16:24 51° ENE 20:16:24 51° ENE
Ariane 44P Rocket 4.5 19:03:55 10° W 20:16:58 74° S 20:20:28 35° ESE
Milstar 3 Cent rocket 4.0 20:10:07 10° WNW 20:18:06 70° SSW 20:29:39 23° SE
CSL-04 Debris 4.3 20:12:42 10° S 20:18:11 78° WSW 20:23:39 10° NNW
IRIDIUM 104 4.3 20:20:22 10° N 20:25:34 83° W 20:30:48 10° S
CZ-3A R/B 4.2 20:04:24 10° WNW 20:27:40 34° N 20:31:45 23° NE
Cosmos 1943 Rocket 2.3 20:22:09 10° NNW 20:27:43 74° WSW 20:31:54 19° S
ISS -0.8 20:32:44 10° NNW 20:32:51 11° N 20:32:51 11° N
USA 215 3.9 20:30:39 15° SSE 20:36:01 50° SW 20:42:16 10° NW
Cosmos 2074 Rocket 4.0 20:38:37 10° N 20:44:54 79° W 20:50:28 14° S
Cosmos 2369 Rocket 2.4 20:43:19 10° NNW 20:48:51 64° WSW 20:50:07 50° SSW
COSMOS 2406 3.3 20:44:18 10° SSW 20:49:55 73° WNW 20:52:26 34° N
DMSP B5D2-2 4.2 20:46:12 10° N 20:51:24 71° WNW 20:56:40 10° SSW
Cosmos 1741 Rocket 4.4 20:49:54 10° SSW 21:02:22 - N 20:54:36 60° WSW
H-2A R/B 4.1 21:22:30 22° NW 21:22:30 22° NW 21:24:24 10° NNW
Ariane H10 4.2 21:20:39 10° W 21:29:06 39° WSW 21:29:06 39° WSW
VEP-3 4.4 12:30:35 10° WNW 21:33:46 56° SSE 21:33:48 56° SSE
